Preview of NWS' New Version of Forecast
This preview is not operational and should not be used for support decisions.

Regional Weather Roundup (RWR)

Issued by Gray - Portland, ME (GYX)

                            
000
ASUS41 KGYX 202010
RWRGYX
WEATHER ROUNDUP FOR MAINE AND NEW HAMPSHIRE
NATIONAL WEATHER SERVICE GRAY ME
400 PM EDT SAT APR 20 2019

MEZ002-005-006-010-012-015-018-020-021-024-026-027-029-202100-
MAINE
  
CITY           SKY/WX    TMP DP  RH WIND       PRES   REMARKS
PORTLAND       LGT RAIN  55  53  93 S15G24    29.91S VSB 3/4          
SANFORD        CLOUDY    64  61  90 VRB7      29.88S                  
BAR HARBOR     FOG       51  51 100 S5        30.02S VSB 1/4          
WISCASSET      CLOUDY    58  57  97 VRB7G17   29.94F                  
ROCKLAND       FOG       52  52 100 S9        29.98S VSB 3/4          
FRYEBURG       CLOUDY    67  65  93 S6        29.86F                  
LEWISTONAUBURN FOG       58  58 100 SE8       29.91S VSB 1            
AUGUSTA        FOG       58  58 100 S7        29.94F VSB<1/4          
WATERVILLE     LGT RAIN  48  47  96 NE6       29.93S FOG              
BANGOR         LGT RAIN  48  47  96 NE8       30.00S FOG              
GREENVILLE       N/A     43  42  97 SE3       29.95F                  
MILLINOCKET    LGT RAIN  43  41  93 E5        30.06R                  
HOULTON        CLOUDY    42  40  92 VRB5      30.05R FOG              
PRESQUE ISLE   LGT RAIN  42  41  96 E8        30.07S FOG              
FRENCHVILLE    RAIN      41  37  86 E8        30.06S FOG              
CARIBOU        LGT RAIN  43  40  89 E9        30.06S FOG              
$$

NHZ002-005-008-009-011-012-014-202100-
NEW HAMPSHIRE
  
CITY           SKY/WX    TMP DP  RH WIND       PRES   REMARKS
PORTSMOUTH     CLOUDY    63  59  87 S14       29.86R                  
ROCHESTER      CLOUDY    66  63  90 SE6       29.86F                  
NASHUA         CLOUDY    72  64  78 S5G16     29.85R                  
MANCHESTER     CLOUDY    71  63  75 S22G30    29.83R                  
CONCORD        CLOUDY    69  64  84 S10G18    29.83F                  
LACONIA          N/A     69  64  84 SE8       29.83F                  
PLYMOUTH       CLOUDY    64  62  94 CALM      29.83S                  
BERLIN         LGT RAIN  61  60  97 CALM      29.87S                  
WHITEFIELD     LGT RAIN  63  59  87 CALM      29.85S                  
JAFFREY        PTSUNNY   68  60  75 S13G21    29.85F                  
KEENE          PTSUNNY   70  63  78 S7        29.81F                  
LEBANON        CLOUDY    67  62  84 S12G17    29.81S FOG              
MT WASHINGTON  LGT RAIN  48  48 100 S25G33      N/A  VSB 1/16         
$$

VTZ005-007-008-202100-
VERMONT
  
CITY           SKY/WX    TMP DP  RH WIND       PRES   REMARKS
ST JOHNSBURY     N/A     54  54 100 MISG      29.81F                  
MONTPELIER     CLOUDY    51  49  92 CALM      29.85F                  
BURLINGTON     LGT RAIN  45  43  93 N6        29.78F                  
$$

MAZ007-012-024-CTZ003-RIZ002-NYZ038-NYZ072-202100-
SOUTHERN NEW ENGLAND AND NY
  
CITY           SKY/WX    TMP DP  RH WIND       PRES   REMARKS
BOSTON         LGT RAIN  69  64  84 S20       29.87S                  
WORCESTER      FAIR      65  59  81 S23G32    29.86S                  
NANTUCKET      CLOUDY    56  53  90 SE21      29.96F FOG              
PROVIDENCE     LGT RAIN  61  61 100 SE12      29.89F                  
HARTFORD       CLOUDY    68  61  78 S18G28    29.81R                  
ALBANY         LGT RAIN  67  62  84 S13G24    29.71F                  
NEW YORK CITY  CLOUDY    58  55  90 S22G28    29.75F                  
$$

ANZ081-ANZ082-ANZ150-NHZ014-MEZ023>029-202100-
COASTAL MARINE OBSERVATIONS
  
STATION/POSITION TIME  TEMP    WIND        PRES    WAVE
                       AIR SEA DIR/SP/G            HT/PER
                 (UTC) (F)     (DEG/KT/KT) (MB)    (FT/S)
ISLE OF SHOALS   1900   51     150/ 26/ 27 1011.4F
CASHES LEDGE BUO 1950   49 42              1015.1R   8/ 9
$$

.............KEY..............
   WCI - WIND CHILL
   TC  - TEMPERATURE IN CELSIUS
   VSB - VISIBILITY IN MILES
   HX  - HEAT INDEX
   FAIR- INDICATES FEW OR NO CLOUDS BELOW 12,000 FT, WITH NO 
         SIGNIFICANT WEATHER AND/OR OBSTRUCTIONS TO VISIBILITY.